TimeCDT,TemperatureF,Dew PointF,Humidity,Sea Level PressureIn,VisibilityMPH,Wind Direction,Wind SpeedMPH,Gust SpeedMPH,PrecipitationIn,Events,Conditions,WindDirDegrees,DateUTC
12:15 AM,73.4,71.6,94,29.98,5.0,Calm,Calm,-,N/A,,Clear,0,2013-07-09 05:15:00
12:35 AM,73.4,71.6,94,29.97,7.0,Calm,Calm,-,N/A,,Clear,0,2013-07-09 05:35:00
12:55 AM,73.4,71.6,94,29.96,7.0,Calm,Calm,-,N/A,,Clear,0,2013-07-09 05:55:00
1:15 AM,73.4,71.6,94,29.96,5.0,Calm,Calm,-,N/A,,Clear,0,2013-07-09 06:15:00
1:35 AM,73.4,69.8,88,29.96,7.0,Calm,Calm,-,N/A,,Clear,0,2013-07-09 06:35:00
1:56 AM,73.4,71.6,94,29.97,7.0,Calm,Calm,-,N/A,,Clear,0,2013-07-09 06:56:00
2:15 AM,71.6,69.8,94,29.97,5.0,Calm,Calm,-,N/A,,Clear,0,2013-07-09 07:15:00
2:35 AM,71.6,69.8,94,29.97,7.0,Calm,Calm,-,N/A,,Clear,0,2013-07-09 07:35:00
2:56 AM,69.8,68.0,94,29.95,10.0,Calm,Calm,-,N/A,,Clear,0,2013-07-09 07:56:00
3:15 AM,71.6,69.8,94,29.95,10.0,Calm,Calm,-,N/A,,Clear,0,2013-07-09 08:15:00
3:35 AM,71.6,69.8,94,29.94,7.0,Calm,Calm,-,N/A,,Clear,0,2013-07-09 08:35:00
3:55 AM,71.6,69.8,94,29.94,7.0,Calm,Calm,-,N/A,,Clear,0,2013-07-09 08:55:00
4:15 AM,69.8,68.0,94,29.94,7.0,Calm,Calm,-,N/A,,Clear,0,2013-07-09 09:15:00
4:35 AM,71.6,69.8,94,29.92,7.0,Calm,Calm,-,N/A,,Clear,0,2013-07-09 09:35:00
4:55 AM,69.8,68.0,94,29.92,7.0,Calm,Calm,-,N/A,,Clear,0,2013-07-09 09:55:00
5:15 AM,71.6,69.8,94,29.92,7.0,Calm,Calm,-,N/A,,Clear,0,2013-07-09 10:15:00
5:35 AM,69.8,68.0,94,29.92,5.0,SSE,3.5,-,N/A,,Clear,150,2013-07-09 10:35:00
5:55 AM,71.6,68.0,88,29.92,5.0,Calm,Calm,-,N/A,,Clear,0,2013-07-09 10:55:00
6:15 AM,71.6,69.8,94,29.92,5.0,SSE,3.5,-,N/A,,Clear,160,2013-07-09 11:15:00
6:35 AM,73.4,71.6,94,29.90,5.0,SSE,4.6,-,N/A,,Clear,160,2013-07-09 11:35:00
6:55 AM,73.4,71.6,94,29.90,4.0,SE,5.8,-,N/A,,Clear,140,2013-07-09 11:55:00
7:16 AM,73.4,71.6,94,29.89,3.0,SSE,3.5,-,N/A,,Mostly Cloudy,150,2013-07-09 12:16:00
7:35 AM,73.4,71.6,94,29.89,4.0,SE,5.8,-,N/A,,Mostly Cloudy,140,2013-07-09 12:35:00
7:55 AM,73.4,69.8,88,29.89,4.0,SE,3.5,-,N/A,,Overcast,140,2013-07-09 12:55:00
8:16 AM,73.4,69.8,88,29.88,5.0,SE,5.8,-,N/A,,Mostly Cloudy,130,2013-07-09 13:16:00
8:35 AM,77.0,69.8,78,29.90,10.0,SSW,8.1,-,N/A,,Scattered Clouds,210,2013-07-09 13:35:00
8:55 AM,73.4,68.0,83,29.90,10.0,SW,5.8,-,N/A,Rain,Light Rain,230,2013-07-09 13:55:00
9:16 AM,73.4,69.8,88,29.89,10.0,SE,4.6,-,N/A,Rain,Light Rain,140,2013-07-09 14:16:00
9:35 AM,71.6,68.0,88,29.90,10.0,Calm,Calm,-,N/A,Rain-Thunderstorm,Light Thunderstorms and Rain,0,2013-07-09 14:35:00
9:55 AM,73.4,69.8,88,29.90,10.0,Calm,Calm,-,N/A,Rain,Light Rain,0,2013-07-09 14:55:00
10:16 AM,73.4,69.8,88,29.92,7.0,WNW,3.5,-,0.01,Rain-Thunderstorm,Rain,300,2013-07-09 15:16:00
10:35 AM,73.4,69.8,88,29.89,10.0,Calm,Calm,-,0.01,Rain,Light Rain,0,2013-07-09 15:35:00
10:55 AM,73.4,69.8,88,29.87,10.0,SE,8.1,-,0.02,Rain,Light Rain,130,2013-07-09 15:55:00
11:15 AM,73.4,69.8,88,29.86,10.0,Calm,Calm,-,N/A,,Mostly Cloudy,0,2013-07-09 16:15:00
11:35 AM,73.4,68.0,83,29.87,10.0,SSW,3.5,-,N/A,,Scattered Clouds,210,2013-07-09 16:35:00
11:55 AM,78.8,71.6,78,29.87,10.0,SW,4.6,-,N/A,,Scattered Clouds,220,2013-07-09 16:55:00
12:16 PM,78.8,69.8,74,29.85,10.0,South,5.8,-,N/A,,Mostly Cloudy,180,2013-07-09 17:16:00
12:35 PM,80.6,69.8,70,29.85,10.0,SW,8.1,-,N/A,,Scattered Clouds,220,2013-07-09 17:35:00
12:55 PM,80.6,69.8,70,29.84,10.0,SW,9.2,16.1,N/A,,Scattered Clouds,220,2013-07-09 17:55:00
1:04 PM,80.6,69.8,70,29.84,10.0,WSW,6.9,-,N/A,,Scattered Clouds,240,2013-07-09 18:04:00
1:35 PM,84.2,69.8,62,29.82,10.0,SW,8.1,-,N/A,,Scattered Clouds,220,2013-07-09 18:35:00
1:55 PM,89.6,73.4,59,29.82,10.0,SW,9.2,-,N/A,,Scattered Clouds,230,2013-07-09 18:55:00
2:15 PM,89.6,71.6,55,29.82,10.0,WSW,9.2,-,N/A,,Scattered Clouds,250,2013-07-09 19:15:00
2:35 PM,87.8,71.6,58,29.81,10.0,SW,5.8,-,N/A,,Mostly Cloudy,220,2013-07-09 19:35:00
2:55 PM,87.8,69.8,55,29.81,10.0,WSW,6.9,-,N/A,,Overcast,250,2013-07-09 19:55:00
3:15 PM,89.6,69.8,52,29.82,10.0,WNW,11.5,25.3,N/A,,Mostly Cloudy,290,2013-07-09 20:15:00
3:35 PM,89.6,68.0,49,29.82,10.0,WNW,12.7,21.9,N/A,,Scattered Clouds,300,2013-07-09 20:35:00
3:55 PM,89.6,66.2,46,29.81,10.0,WNW,10.4,21.9,N/A,,Scattered Clouds,290,2013-07-09 20:55:00
4:15 PM,89.6,68.0,49,29.81,10.0,WNW,11.5,17.3,N/A,,Scattered Clouds,300,2013-07-09 21:15:00
4:40 PM,89.6,66.2,46,29.81,10.0,WNW,12.7,16.1,N/A,,Scattered Clouds,300,2013-07-09 21:40:00
5:00 PM,89.6,69.8,52,29.82,10.0,WNW,11.5,18.4,N/A,,Scattered Clouds,300,2013-07-09 22:00:00
5:20 PM,89.6,69.8,52,29.82,10.0,NW,13.8,19.6,N/A,,Scattered Clouds,310,2013-07-09 22:20:00
5:40 PM,87.8,66.2,49,29.83,10.0,WNW,12.7,23.0,N/A,,Clear,300,2013-07-09 22:40:00
6:00 PM,87.8,66.2,49,29.83,10.0,WNW,13.8,18.4,N/A,,Clear,300,2013-07-09 23:00:00
6:20 PM,84.2,64.4,51,29.84,10.0,WNW,13.8,21.9,N/A,,Clear,290,2013-07-09 23:20:00
6:40 PM,84.2,64.4,51,29.84,10.0,WNW,13.8,-,N/A,,Clear,290,2013-07-09 23:40:00
7:00 PM,82.4,64.4,54,29.84,10.0,WNW,10.4,-,N/A,,Clear,300,2013-07-10 00:00:00
7:20 PM,82.4,64.4,54,29.84,10.0,WNW,9.2,-,N/A,,Clear,300,2013-07-10 00:20:00
7:40 PM,82.4,64.4,54,29.85,10.0,WNW,12.7,19.6,N/A,,Clear,290,2013-07-10 00:40:00
8:00 PM,82.4,64.4,54,29.84,10.0,WNW,5.8,-,N/A,,Clear,290,2013-07-10 01:00:00
8:20 PM,82.4,66.2,58,29.85,10.0,WNW,9.2,-,N/A,,Clear,290,2013-07-10 01:20:00
8:40 PM,80.6,64.4,58,29.85,10.0,WNW,9.2,-,N/A,,Clear,290,2013-07-10 01:40:00
9:05 PM,80.6,66.2,61,29.86,10.0,WNW,5.8,-,N/A,,Clear,290,2013-07-10 02:05:00
9:20 PM,78.8,66.2,65,29.86,10.0,WNW,5.8,-,N/A,,Clear,300,2013-07-10 02:20:00
9:40 PM,78.8,66.2,65,29.86,10.0,WNW,6.9,-,N/A,,Clear,300,2013-07-10 02:40:00
10:00 PM,78.8,66.2,65,29.87,10.0,WNW,6.9,-,N/A,,Clear,300,2013-07-10 03:00:00
10:20 PM,78.8,66.2,65,29.87,10.0,WNW,9.2,-,N/A,,Clear,300,2013-07-10 03:20:00
10:40 PM,78.8,66.2,65,29.87,10.0,WNW,6.9,-,N/A,,Clear,290,2013-07-10 03:40:00
11:00 PM,78.8,66.2,65,29.87,10.0,WNW,8.1,16.1,N/A,,Clear,290,2013-07-10 04:00:00
11:20 PM,77.0,66.2,69,29.87,10.0,NW,10.4,-,N/A,,Clear,310,2013-07-10 04:20:00
11:40 PM,77.0,66.2,69,29.87,10.0,WNW,11.5,-,N/A,,Clear,290,2013-07-10 04:40:00